Weather History for Kalamazoo, MI

Change the Weather History Date:

Wednesday, February 26, 2014

  Actual Average Record
Temperature  
Mean Temperature 8 °F 30 °F  
Max Temperature 13 °F 37 °F 63 °F (1976)
Min Temperature 3 °F 22 °F -9 °F (1963)
Degree Days  
Heating Degree Days 57 35  
Month to date heating degree days 1217 996  
Since 1 July heating degree days 5047 4704  
Cooling Degree Days 0 0  
Month to date cooling degree days 0 0  
Year to date cooling degree days 0 0  
Moisture  
Dew Point 2 °F    
Average Humidity 67    
Maximum Humidity 86    
Minimum Humidity 48    
Precipitation  
Precipitation T in 0.06 in 0.80 in (2009)
Month to date precipitation 1.39 1.33  
Year to date precipitation 2.51 3.12  
Sea Level Pressure  
Sea Level Pressure 30.00 in    
Wind  
Wind Speed 14 mph (West)    
Max Wind Speed 23 mph    
Max Gust Speed 31 mph    
Visibility 7 miles    
Events Snow    
T = Trace of Precipitation, MM = Missing Value Source: NWS Daily Summary

Daily Weather History Graph

Daily Weather History Graph

Search for Another Location

Airport:

Trip Planner

Search our weather history database for the weather conditions in past years. The results will help you decide how hot, cold, wet, or windy it might be!

Date:

Astronomy

Feb. 26, 2014 Rise Set
Actual Time 7:22 AM EST 6:28 PM EST
Civil Twilight 6:53 AM EST 6:56 PM EST
Nautical Twilight 6:21 AM EST 7:29 PM EST
Astronomical Twilight 5:49 AM EST 8:01 PM EST
Moon 5:10 AM EST (2/26) 3:40 PM EST (2/26)
Length of Visible Light 12h 02m
Length of Day
11h 06m
Waning Crescent, 10% of the Moon is Illuminated
Feb 26
Waning Crescent
Mar 1
New
Mar 8
First Quarter
Mar 16
Full
Mar 23
Last Quarter

Hourly Weather History & Observations

Time (EST) Temp. Windchill Dew Point Humidity Pressure Visibility Wind Dir Wind Speed Gust Speed Precip Events Conditions
12:00 AM 12.9 °F -0.9 °F 7.0 °F 77% 30.05 in 4.0 mi NW 11.5 mph - 0.00 in Snow Light Snow
12:25 AM 12.9 °F -0.2 °F 7.0 °F 77% 30.05 in 2.0 mi WNW 10.4 mph - 0.00 in Snow Light Snow
12:42 AM 12.9 °F -0.2 °F 7.0 °F 77% 30.06 in 3.0 mi WNW 10.4 mph - 0.00 in Snow Light Snow
12:49 AM 12.2 °F -1.8 °F 6.8 °F 79% 30.06 in 2.0 mi WNW 11.5 mph - 0.00 in Snow Light Snow
12:53 AM 12.0 °F -2.7 °F 7.0 °F 80% 30.11 in 2.0 mi NW 12.7 mph - 0.00 in Snow Light Snow
1:05 AM 12.0 °F -6.0 °F 5.0 °F 73% 30.06 in 4.0 mi NW 19.6 mph 27.6 mph 0.00 in Snow Light Snow
1:34 AM 12.0 °F -1.3 °F 6.1 °F 77% 30.07 in 2.5 mi NW 10.4 mph - 0.00 in Snow Light Snow
1:42 AM 10.9 °F -6.5 °F 3.9 °F 73% 30.07 in 4.0 mi NW 17.3 mph 23.0 mph 0.00 in Snow Light Snow
1:53 AM 10.9 °F -3.4 °F 5.0 °F 77% 30.13 in 5.0 mi NW 11.5 mph 23.0 mph 0.00 in Snow Light Snow
2:18 AM 10.9 °F -3.4 °F 3.9 °F 73% 30.07 in 10.0 mi WNW 11.5 mph - 0.00 in   Overcast
2:53 AM 10.0 °F -2.9 °F 3.9 °F 76% 30.12 in 9.0 mi WNW 9.2 mph - 0.00 in   Overcast
3:04 AM 10.0 °F -2.9 °F 3.9 °F 76% 30.07 in 10.0 mi WNW 9.2 mph - N/A   Mostly Cloudy
3:39 AM 9.0 °F -5.9 °F 3.0 °F 77% 30.08 in 8.0 mi WNW 11.5 mph - N/A   Mostly Cloudy
3:53 AM 9.0 °F -3.2 °F 3.0 °F 77% 30.13 in 5.0 mi WNW 8.1 mph - 0.00 in Snow Light Snow
4:53 AM 9.0 °F -5.9 °F 3.0 °F 77% 30.13 in 6.0 mi WNW 11.5 mph - 0.00 in Snow Light Snow
5:11 AM 8.1 °F -5.3 °F 1.9 °F 76% 30.08 in 10.0 mi WNW 9.2 mph - 0.00 in   Scattered Clouds
5:53 AM 7.0 °F -5.7 °F 1.0 °F 77% 30.14 in 10.0 mi WNW 8.1 mph - 0.00 in   Clear
6:53 AM 6.1 °F -6.8 °F 1.0 °F 80% 30.15 in 10.0 mi WNW 8.1 mph - N/A   Clear
7:53 AM 3.9 °F -6.9 °F -0.9 °F 80% 30.16 in 10.0 mi West 5.8 mph - N/A   Clear
8:53 AM 8.1 °F -4.3 °F 1.0 °F 73% 30.17 in 10.0 mi West 8.1 mph - N/A   Scattered Clouds
9:53 AM 9.0 °F -7.3 °F -0.0 °F 67% 30.16 in 10.0 mi West 13.8 mph - N/A   Mostly Cloudy
10:53 AM 10.0 °F -4.5 °F -0.0 °F 64% 30.14 in 5.0 mi West 11.5 mph - 0.00 in   Haze
11:25 AM 10.0 °F -5.9 °F 3.0 °F 73% 30.07 in 2.0 mi West 13.8 mph - 0.00 in Snow Light Snow
11:45 AM 10.9 °F -3.4 °F 1.0 °F 64% 30.06 in 8.0 mi WSW 11.5 mph - 0.00 in Snow Light Snow
11:53 AM 12.0 °F -2.7 °F -0.0 °F 59% 30.12 in 8.0 mi West 12.7 mph - 0.00 in   Overcast
12:53 PM 12.0 °F -5.6 °F -0.9 °F 56% 30.09 in 10.0 mi SW 18.4 mph - 0.00 in   Overcast
1:53 PM 10.9 °F -4.7 °F 1.0 °F 64% 30.05 in 3.0 mi WSW 13.8 mph - 0.00 in Snow Blowing Snow
2:53 PM 12.0 °F -5.1 °F -0.9 °F 56% 30.00 in 9.0 mi SW 17.3 mph 23.0 mph 0.00 in   Partly Cloudy
3:53 PM 12.0 °F -5.6 °F -2.0 °F 53% 29.95 in 10.0 mi SW 18.4 mph 27.6 mph N/A   Clear
4:53 PM 12.0 °F -5.1 °F -4.0 °F 49% 29.91 in 10.0 mi SW 17.3 mph 25.3 mph N/A   Clear
5:53 PM 10.9 °F -4.7 °F -2.9 °F 54% 29.87 in 10.0 mi SW 13.8 mph 24.2 mph N/A   Mostly Cloudy
6:53 PM 10.0 °F -5.9 °F -2.0 °F 58% 29.85 in 10.0 mi SW 13.8 mph - N/A   Partly Cloudy
7:53 PM 10.9 °F -7.0 °F -0.9 °F 59% 29.78 in 10.0 mi SW 18.4 mph 27.6 mph N/A   Overcast
8:53 PM 12.0 °F -7.3 °F 1.0 °F 61% 29.75 in 10.0 mi SW 23.0 mph 28.8 mph N/A   Overcast
9:53 PM 12.0 °F -6.5 °F -0.9 °F 56% 29.75 in 10.0 mi WSW 20.7 mph 31.1 mph N/A   Mostly Cloudy
10:43 PM 12.9 °F -4.9 °F 1.0 °F 59% 29.66 in 6.0 mi SW 19.6 mph 28.8 mph 0.00 in Snow Light Snow
10:51 PM 12.2 °F -5.3 °F 1.4 °F 62% 29.65 in 9.0 mi SW 18.4 mph 26.5 mph 0.00 in Snow Light Snow
10:53 PM 12.9 °F -3.4 °F 1.0 °F 59% 29.71 in 9.0 mi SW 16.1 mph - 0.00 in   Overcast
11:53 PM 12.9 °F -2.8 °F 3.9 °F 67% 29.65 in 8.0 mi SW 15.0 mph 26.5 mph N/A   Overcast